Voltar ao catálogo

STARLINK-32736

AtivoComunicaçõesVLEO
NORAD 62443·PAYLOAD·🇺🇸 United States

Lançado Dec 29, 2024 de Vandenberg Space Force Base

Loading…

Próximas Passagens (próximas 24 horas)

TLE

AtualizadoSource: CelesTrak SupGP

Época: Sep 15, 2026, 02:23 UTC

1 62443C 24251M   26258.09979167 -.00045437  00000+0 -13425-2 0  2583
2 62443  53.1582 174.8084 0001320  84.6260  71.6979 15.34410989    13

Acompanhe STARLINK-32736 em tempo real com AllMySat

Download on the App Store